RH
49 45 28 25 30 45 42 49 37 41 30 16 6 3 4 4 4 4 5 7 9 11 9 8 7 8 10 10 8 9 9 9 12 18 21 19 19 18 18 33 30 22 18 17
48 37 26 21 34 39 53 53 37 40 25 12 6 3 4 4 5 5 6 7 9 12 11 12 12 9 12 17 16 15 13 12 13 13 14 14 15 18 29 37 32 28 25 26
45 34 20 24 30 44 62 53 56 40 21 12 6 4 3 4 5 5 6 7 11 14 16 16 18 21 19 20 27 29 29 27 21 25 28 28 28 28 33 37 38 34 34 29
45 23 20 27 35 52 45 54 54 30 18 11 5 4 4 4 5 6 7 8 12 14 16 20 21 26 27 28 33 38 40 48 46 40 41 42 43 44 44 43 44 43 37 31
37 17 22 36 45 39 45 44 56 32 19 10 6 4 3 4 5 6 6 9 13 16 20 24 23 24 29 32 38 45 53 64 70 83 66 57 57 62 62 56 54 59 45 37
26 13 21 31 40 39 43 39 40 32 15 9 5 4 4 4 6 6 7 8 12 18 23 27 29 30 32 34 40 46 51 60 69 82 93 92 86 80 80 68 51 55 50 39
18 12 22 22 31 37 46 44 24 24 16 8 6 3 4 5 6 6 8 9 11 17 25 28 33 36 35 39 40 48 59 68 76 90 99 99 98 92 95 95 87 85 70 49
20 13 22 26 24 39 41 62 53 43 14 6 5 3 4 5 6 7 8 9 11 13 23 30 36 42 44 42 45 51 59 60 68 74 89 98 96 94 92 98 98 88 82 62
14 11 18 23 31 38 39 49 59 41 11 10 5 4 4 5 7 7 8 10 10 13 20 28 34 38 46 52 53 53 55 62 57 72 71 76 93 87 83 84 89 83 76 68
15 12 18 22 29 32 40 56 57 20 12 7 6 5 5 6 7 8 8 9 12 14 22 29 35 39 42 49 54 56 61 58 65 70 61 58 60 64 65 75 66 68 69 63
15 9 15 24 23 33 41 57 54 29 18 7 5 5 5 6 8 8 9 10 12 15 18 31 40 44 45 51 54 58 61 68 69 76 72 74 69 67 74 74 71 74 72 67
15 11 12 31 21 27 45 49 45 38 14 6 5 6 6 7 8 9 8 10 12 16 20 28 41 56 57 59 56 65 76 78 78 73 77 79 79 76 83 82 75 78 76 81
15 12 13 27 32 34 37 39 44 28 9 6 6 6 6 7 7 9 8 10 11 14 18 23 37 53 61 66 70 72 76 82 87 85 81 78 76 80 81 86 82 83 88 92
19 11 14 22 33 35 41 40 35 25 10 6 6 6 7 7 8 9 9 10 10 13 16 20 27 43 49 67 73 78 85 83 85 84 80 80 77 85 81 82 85 92 96 100
23 16 14 17 33 30 43 30 39 23 12 6 6 6 7 8 8 9 10 11 11 14 16 19 25 32 45 54 68 85 86 90 83 81 86 78 91 95 97 96 98 97 91 94
35 20 15 17 25 53 53 36 34 24 13 8 7 6 7 7 9 11 10 10 11 13 15 18 22 30 36 58 74 82 92 90 87 90 95 84 86 94 98 97 96 96 96 94
31 24 20 17 31 43 38 46 45 28 15 7 7 6 7 8 10 11 9 10 12 14 16 17 20 26 33 38 69 77 88 91 96 98 98 90 90 96 92 96 97 96 96 97
36 29 27 17 28 34 40 36 42 31 15 7 7 7 8 8 9 11 11 12 13 14 15 16 19 24 28 23 50 71 82 85 94 96 99 94 94 97 92 91 93 92 91 92
30 33 38 35 32 49 42 39 44 30 18 7 7 7 8 8 10 10 11 13 15 15 15 16 20 23 25 21 33 63 70 76 79 91 92 90 92 91 93 94 90 88 90 91
38 34 40 48 74 43 25 46 36 52 20 8 7 7 8 9 10 11 11 12 16 17 16 18 21 20 19 21 29 36 55 69 82 75 78 74 78 84 86 87 87 86 85 86
43 56 49 40 32 40 35 30 43 52 12 8 7 7 8 9 11 12 12 13 15 16 17 21 21 16 21 24 25 30 33 33 49 75 76 71 71 74 86 92 90 88 86 84
72 57 53 44 44 45 33 53 50 36 9 8 7 7 9 10 11 13 13 15 16 17 18 22 18 16 20 25 26 27 30 34 36 40 85 92 81 80 86 92 96 91 88 84
53 55 48 49 47 42 61 29 51 37 10 8 6 7 9 10 10 12 16 18 19 18 18 18 15 20 21 23 27 28 27 25 24 30 50 87 99 93 90 94 95 93 92 90
61 50 50 48 46 44 28 48 63 11 10 7 6 7 9 11 11 12 16 20 20 21 18 18 19 18 21 21 21 20 18 16 16 19 30 65 80 98 100 91 92 94 96 94
64 54 39 43 30 46 83 64 55 13 10 6 5 6 8 11 12 14 16 19 21 22 21 18 18 24 23 23 22 20 20 18 16 16 22 53 77 83 85 93 94 94 95 96
64 50 40 24 32 45 71 65 47 10 9 5 5 6 8 11 12 15 18 20 21 20 19 18 25 27 24 23 22 22 24 24 22 21 25 52 82 82 82 84 84 86 88 93
45 36 36 20 21 41 68 33 11 9 7 4 4 6 8 11 13 15 18 20 20 20 22 21 29 26 23 24 24 26 27 27 27 27 29 34 41 47 56 65 70 73 75 77
Wind_Speed
87 87 91 88 88 101 96 97 99 96 90 87 78 72 62 53 48 43 38 37 33 29 23 15 11 12 15 12 13 16 19 27 32 36 41 43 42 46 46 47 50 53 54 54
85 89 89 87 88 96 98 92 99 102 90 88 83 70 60 52 43 39 34 32 28 24 18 14 11 10 12 16 15 16 17 21 27 29 32 33 34 34 38 41 40 40 42 44
87 88 91 87 89 98 95 94 97 98 95 90 82 74 59 51 40 34 30 28 25 18 15 10 7 11 13 17 18 19 19 19 23 27 30 33 33 33 36 36 33 32 34 37
88 88 89 91 96 104 91 105 105 90 81 75 71 64 52 45 39 31 26 24 21 18 11 6 4 8 13 16 19 22 22 21 20 18 20 21 22 25 28 28 30 32 34 36
88 86 89 98 103 102 93 104 105 91 89 81 63 60 50 41 35 30 22 20 19 14 7 4 1 6 11 14 16 20 22 22 25 21 22 24 26 28 29 30 32 31 34 36
87 85 88 97 104 95 102 98 100 98 81 76 64 54 47 38 32 27 23 18 16 10 6 3 2 6 9 12 15 17 21 24 24 23 21 20 22 23 24 27 29 30 31 33
90 86 93 97 99 92 109 98 90 98 88 78 67 50 41 35 31 24 20 18 16 11 9 5 5 6 8 11 14 16 18 19 22 20 20 21 22 22 21 23 25 26 29 31
93 88 93 94 102 104 104 104 101 98 89 78 63 50 37 31 27 23 19 16 17 15 10 7 7 8 10 13 15 17 19 21 21 20 24 25 28 28 28 27 27 27 28 28
98 92 96 100 105 108 102 99 103 94 75 74 54 43 36 29 23 22 18 15 17 17 12 10 9 10 12 14 16 19 20 22 23 24 28 29 29 29 31 31 32 33 33 31
103 96 97 104 108 97 104 107 108 88 79 66 51 40 33 28 22 19 19 16 15 17 14 13 13 13 14 15 18 19 21 22 23 26 27 27 29 30 32 32 32 32 32 32
105 95 98 105 101 110 109 109 92 90 82 62 46 40 33 25 21 18 18 17 15 18 18 16 16 16 16 17 17 18 19 19 21 22 23 25 26 24 26 27 29 30 30 32
108 98 100 112 102 93 115 105 97 95 74 54 46 39 32 23 20 18 18 18 18 19 18 17 18 19 19 20 19 19 19 19 20 21 21 24 26 27 29 28 29 29 28 27
112 103 101 114 118 108 106 91 93 83 70 48 43 36 32 25 19 19 18 17 19 20 19 20 19 21 21 21 22 22 21 21 22 22 23 23 24 27 28 28 27 29 30 30
115 108 105 112 114 109 111 100 92 85 64 48 43 35 29 24 19 17 19 18 18 20 22 21 22 22 21 21 23 23 24 24 24 24 23 24 22 22 23 25 30 31 31 33
116 112 104 109 114 93 109 95 109 86 60 50 43 35 29 23 20 18 20 20 20 21 23 22 22 24 24 21 22 23 25 25 25 22 21 20 22 25 25 26 26 29 33 35
122 118 113 110 112 115 108 91 112 84 71 58 45 36 28 21 19 20 20 20 20 23 23 24 24 25 25 25 25 24 26 28 26 23 24 21 21 22 24 24 25 26 27 29
121 122 122 108 115 108 92 108 101 86 70 49 46 37 28 20 18 21 21 21 20 24 25 27 25 25 27 27 25 27 30 31 30 28 27 25 24 24 22 21 19 19 19 20
125 126 127 114 121 114 104 100 102 96 78 53 45 37 29 22 20 19 20 21 22 25 25 25 25 27 29 25 27 30 33 36 35 33 32 29 28 28 26 25 23 22 20 19
128 129 130 124 123 129 112 94 104 92 81 57 45 37 30 23 22 21 21 22 24 24 25 25 27 29 33 23 25 35 35 37 39 39 38 36 34 32 31 29 27 26 25 24
128 129 130 136 141 104 96 111 93 119 79 56 45 36 29 22 22 23 24 22 23 26 26 26 29 32 29 26 25 33 38 37 40 43 43 40 39 37 35 33 31 30 29 28
131 132 136 133 114 109 100 96 107 116 74 56 45 37 30 22 21 23 26 26 26 25 26 29 31 30 27 29 28 28 32 38 41 40 43 42 41 38 38 36 34 32 30 29
133 135 133 129 131 120 103 119 115 109 65 56 43 37 31 25 20 22 23 25 26 26 27 30 33 28 25 28 29 29 31 32 35 40 41 44 46 42 41 41 38 35 32 32
135 135 135 135 132 118 129 106 116 102 66 55 41 36 33 27 24 22 21 24 26 28 28 31 27 25 27 27 29 31 32 34 35 38 45 44 44 45 46 44 42 40 38 35
139 136 138 135 120 119 104 111 120 74 62 55 42 34 32 27 27 24 23 26 25 28 28 26 28 26 26 25 25 27 29 30 32 36 43 45 42 43 45 47 45 43 41 40
142 145 130 129 107 117 130 114 120 77 60 52 41 33 31 28 27 26 26 26 27 27 28 27 23 25 26 25 25 26 26 27 29 33 40 44 42 41 39 40 41 43 44 44
148 145 128 106 102 106 128 135 104 64 56 49 41 32 31 28 28 28 29 28 27 28 27 24 22 27 27 25 24 24 24 24 25 29 36 40 43 42 39 38 39 40 41 42
149 132 121 84 85 111 131 107 72 59 50 45 39 32 31 30 30 32 31 29 28 27 25 24 24 28 26 23 23 24 24 24 25 28 32 36 38 38 38 40 43 44 45 45
Wind_Direction
332 333 336 338 343 347 343 343 334 342 337 340 340 334 336 341 339 344 351 355 358 2 5 13 47 78 87 105 142 158 172 179 187 192 206 215 216 219 220 218 219 222 226 230
330 333 333 339 345 347 347 344 335 336 339 342 340 334 335 337 338 340 347 351 357 360 2 17 53 90 113 105 117 131 159 173 180 194 205 215 216 211 212 218 223 227 230 233
329 330 336 345 346 347 348 345 341 344 331 334 335 336 334 333 335 337 341 348 351 356 360 17 56 96 111 119 117 119 128 143 159 170 178 191 202 205 209 217 223 225 226 227
328 331 341 350 348 347 343 346 342 344 344 336 336 337 334 331 331 333 336 342 345 343 356 20 87 115 123 126 124 122 121 119 129 147 158 173 184 193 203 209 214 217 221 221
326 331 342 349 348 347 345 345 346 339 337 332 338 337 333 330 327 326 330 335 333 335 337 346 106 148 141 136 136 132 133 134 137 146 159 168 175 178 186 193 200 204 209 212
326 332 342 349 349 348 351 341 342 339 332 338 334 338 333 329 325 320 320 325 321 318 306 283 228 170 165 163 159 154 149 145 147 149 153 158 166 171 182 192 200 205 208 212
328 336 345 349 349 354 354 350 335 334 329 331 332 334 333 329 324 313 310 312 312 308 289 248 212 198 187 183 180 175 170 165 164 163 168 175 183 185 192 197 207 205 212 213
329 338 344 346 348 350 353 348 343 340 332 330 331 328 329 326 322 308 300 299 299 297 283 252 218 198 197 199 192 192 191 188 189 190 189 192 195 197 199 200 205 208 217 215
329 336 343 344 346 348 351 347 343 338 332 332 330 324 325 324 320 304 290 282 287 289 277 259 238 218 204 203 203 201 202 205 207 208 207 201 205 207 207 209 211 214 219 220
329 338 343 349 349 349 354 347 345 335 330 327 327 323 324 321 318 301 285 272 271 275 268 251 242 232 221 209 205 207 207 210 213 218 223 222 218 218 215 214 217 222 225 227
328 335 342 344 348 352 347 349 346 338 332 331 328 323 319 319 312 299 278 265 257 264 263 251 234 228 227 220 218 211 210 214 216 219 223 227 227 226 227 228 224 222 223 226
327 333 341 343 347 354 348 345 349 339 335 330 327 325 319 316 308 295 272 254 249 250 254 248 238 228 225 225 221 221 217 217 221 221 221 223 222 222 222 227 223 219 218 220
325 332 339 343 344 348 349 352 342 338 332 332 326 330 319 307 300 290 274 253 243 242 245 246 238 231 228 226 226 224 224 226 227 229 227 222 219 219 221 222 220 218 218 220
324 329 336 341 349 355 347 349 343 337 337 332 329 329 319 307 297 287 274 259 247 240 240 242 243 238 238 228 229 229 232 234 232 230 231 231 228 225 220 221 223 220 220 221
323 328 334 341 343 347 348 340 345 341 340 334 331 326 318 309 296 279 263 250 241 237 239 239 240 242 240 237 233 231 232 230 230 228 231 233 228 228 227 224 223 225 226 224
321 327 333 340 345 341 342 342 338 340 343 335 332 325 322 314 298 279 269 258 244 240 239 238 238 239 241 240 232 227 226 224 226 224 232 235 225 224 224 225 225 224 226 228
320 323 327 337 338 340 342 338 341 333 336 333 331 325 321 309 296 283 273 254 242 238 236 238 238 237 237 237 235 228 222 221 221 222 228 229 224 220 218 216 216 217 218 221
317 321 323 334 338 342 341 338 335 337 334 332 331 324 317 302 288 275 263 255 245 239 238 237 238 239 239 234 230 234 226 222 221 222 227 228 228 225 223 221 221 222 221 220
316 319 322 328 327 331 335 343 339 337 338 330 329 321 313 301 291 278 258 248 243 242 238 236 237 238 242 238 224 235 235 231 226 223 226 228 228 230 227 227 229 232 235 235
316 319 322 322 319 325 338 340 344 340 333 328 325 317 310 299 288 277 263 248 242 239 239 238 239 240 243 244 229 229 237 238 238 233 231 232 232 229 231 233 239 243 243 243
315 318 319 325 328 332 337 342 338 333 326 326 321 312 304 292 285 280 264 250 243 239 236 238 241 244 242 244 242 239 241 242 241 241 244 241 238 238 234 238 243 246 246 246
314 315 320 324 328 326 338 336 338 336 324 322 316 307 299 288 274 266 265 256 249 241 236 240 244 245 242 246 249 247 246 245 246 245 239 241 240 240 238 239 242 246 247 248
312 315 320 321 324 328 332 340 333 330 318 316 310 301 292 284 275 262 256 254 249 246 243 244 252 250 246 245 248 254 256 253 247 240 234 235 238 239 240 242 242 245 247 250
309 313 316 317 323 329 328 332 330 318 314 308 302 294 287 278 270 263 250 250 251 248 250 250 247 252 252 255 258 258 257 254 247 239 232 231 235 238 240 243 245 246 247 247
309 310 315 318 324 328 324 327 327 314 310 302 295 289 281 272 263 259 252 246 246 248 248 250 253 255 256 259 256 252 249 247 244 238 230 232 234 238 240 243 247 250 251 251
307 310 314 318 321 326 324 321 317 308 304 295 289 284 275 266 256 251 248 247 246 246 249 252 255 257 258 254 250 248 244 242 240 236 231 232 237 241 244 246 247 247 247 248
306 311 314 321 316 325 327 319 308 304 298 288 283 279 271 261 248 245 246 247 248 250 253 252 254 254 252 252 250 248 245 240 239 236 235 237 242 246 246 246 248 249 249 247